Погода в Джабалпуре

Индия     23°08′45″N   79°57′13″E
темп.,
°C
ветер,
м/с
пор.,
м/с
влажн.,
%
обл.,
%
осадки,
мм/ч
давл.,
гПа
погр.,
м
19 апреля, пн
пн1923:30+30св22200 0.0 100921
02:30+28св33203 0.0 100833
05:30+26вюв22222 0.0 100816
08:30+33св23155 0.0 1010493
11:30+38ссз25115 0.0 10083970
14:30+39сз461051 0.0 10044791
17:30+38ссз34106 0.0 10034475
20:30+34ссв221336 0.0 100516
20 апреля, вт
вт2023:30+31юв111539 0.0 100511
02:30+30зюз00165 0.0 100411
05:30+28вюв11185 0.0 100511
08:30+35ю331230 0.0 1007480
11:30+39зюз369100 0.0 10054463
14:30+41з55829 0.0 10024773
17:30+40з6695 0.0 10024709
20:30+34з331372 0.0 100436
21 апреля, ср
ср2123:30+32з22165 0.0 100515
02:30+30сз121875 0.0 100516
05:30+29зсз222199 0.0 100723
08:30+34с5716100 0.0 1009970
11:30+38сз4513100 0.0 10082654
14:30+39сз5712100 0.0 10053898
17:30+38сз361398 0.0 10043880
20:30+33ссз3718100 0.0 1007159
22 апреля, чт
чт2223:30+32зсз3419100 0.0 100768
02:30+30зюз1120100 0.0 100616
05:30+29ю2221100 0.0 100811
08:30+32з3319100 0.1 1010400
11:30+37зсз4612100 0.1 10092625
14:30+37зсз5911100 0.0 10063744
17:30+37зсз56780 0.0 10053597
20:30+32ссз221217 0.0 100712
23 апреля, пт
пт2323:30+29всв221675 0.0 100817
02:30+28ссв1116100 0.0 100711
05:30+26всв221866 0.0 100811
08:30+33всв351250 0.0 1010521
11:30+38ссв34898 0.0 10093208
14:30+40сз3472 0.0 10053970
17:30+39сз337100 0.0 10044247
20:30+33с23107 0.0 100725